Home > Time Zones > World Clock > Weather > Norway > Tau > Past weeks

Flag for Norway Weather past 2 weeks in Tau, Norway

Now
55 °F

Broken clouds.


Feels Like: 53 °F
Forecast: 48 / 53 °F
Wind: 8 mph from Northwest

Location: Stavanger / Sola

Current Time: Aug 22, 2014 at 4:44:33 PM

Latest Report: Aug 22, 2014 at 3:50 PM


Visibility: N/A

Pressure: 29.59 "Hg

Humidity: 82%

Dew point: 50 °F

Location of TauLocation

Historic Weather in Tau — Graph

°F

Tau temperature yesterday

Maximum temperature yesterday: 59 °F (at 2:50 PM)
Minimum temperature yesterday: 52 °F (at 2:50 AM)
Average temperature yesterday: 55 °F

Past Weeks' High & Low Weather Summary

 TemperatureHumidityPressure
High70 °F (Aug 8, 6:50 PM)100% (Aug 18, 12:20 AM)29.95 "Hg (Aug 18, 12:20 AM)
Low48 °F (Aug 22, 5:50 AM)46% (Aug 9, 3:20 PM)29.21 "Hg (Aug 18, 9:20 AM)
Average59 °F78%29.54 "Hg
* Reported Aug 7 3:20 PM — Aug 22 3:50 PM, Tau, Weather by CustomWeather, © 2014

Note: Actual official high and low records may vary slightly from our data, if they occured in-between our weather recording intervals... More about our weather records

Advertising

Tau weather history for previous 24 hours

 ConditionsComfort  
Time TempWeatherWind HumidityBarometerVisibility
3:50 PM
Aug 22
55 °FBroken clouds.8 mph82%29.59 "HgN/A
3:20 PM55 °FPartly sunny.8 mph88%29.59 "HgN/A
2:50 PM55 °FRain showers. Broken clouds.8 mph82%29.59 "Hg5 mi
2:20 PM55 °FSprinkles. Broken clouds.8 mph88%29.59 "HgN/A
1:50 PM57 °FBroken clouds.8 mph77%29.59 "HgN/A
1:20 PM57 °FScattered showers. Broken clouds.9 mph77%29.59 "HgN/A
12:50 PM57 °FPartly sunny.10 mph77%29.59 "HgN/A
12:20 PM57 °FSprinkles. Broken clouds.7 mph77%29.59 "HgN/A
11:50 AM57 °FBroken clouds.7 mph77%29.59 "HgN/A
11:20 AM55 °FBroken clouds.5 mph77%29.62 "HgN/A
10:50 AM55 °FBroken clouds.5 mph77%29.62 "HgN/A
10:20 AM54 °FScattered showers. Broken clouds.3 mph82%29.62 "HgN/A
9:50 AM54 °FSprinkles. Broken clouds.1 mph88%29.59 "HgN/A
9:20 AM52 °FSprinkles. Broken clouds.No wind94%29.62 "HgN/A
8:50 AM52 °FSprinkles. Broken clouds.No wind94%29.62 "HgN/A
8:20 AM50 °FScattered showers. Broken clouds.No wind94%29.62 "HgN/A
7:50 AM50 °FPartly sunny.No wind94%29.62 "HgN/A
7:20 AM50 °FPartly sunny.1 mph94%29.62 "HgN/A
6:50 AM48 °FPassing clouds.2 mph100%29.62 "HgN/A
6:20 AM48 °FPassing clouds.2 mph94%29.62 "HgN/A
5:50 AM48 °FPartly cloudy.No wind100%29.62 "HgN/A
4:50 AM50 °FPartly cloudy.1 mph94%29.65 "HgN/A
3:50 AM52 °FPassing clouds.3 mph88%29.65 "HgN/A
2:50 AM52 °FPartly cloudy.3 mph82%29.65 "HgN/A
1:50 AM52 °FPartly cloudy.3 mph82%29.68 "HgN/A
12:50 AM52 °FPartly cloudy.1 mph82%29.68 "HgN/A
12:20 AM52 °FPartly cloudy.1 mph82%29.68 "HgN/A
11:50 PM
Aug 21
52 °FPartly cloudy.1 mph82%29.68 "HgN/A
11:20 PM52 °FPassing clouds.1 mph82%29.68 "HgN/A
10:50 PM52 °FPassing clouds.1 mph77%29.68 "HgN/A
10:20 PM54 °FPassing clouds.2 mph72%29.71 "HgN/A
9:50 PM54 °FPartly sunny.1 mph72%29.71 "HgN/A
9:20 PM55 °FBroken clouds.1 mph67%29.71 "HgN/A
8:50 PM55 °FBroken clouds.2 mph63%29.71 "HgN/A
8:20 PM55 °FPartly sunny.3 mph63%29.71 "HgN/A
7:50 PM55 °FPartly sunny.3 mph67%29.71 "HgN/A
7:20 PM57 °FScattered clouds.5 mph67%29.71 "HgN/A
6:50 PM57 °FPartly sunny.6 mph63%29.71 "HgN/A
6:20 PM59 °FScattered clouds.3 mph59%29.71 "HgN/A
5:50 PM57 °FPartly sunny.6 mph67%29.71 "HgN/A
5:20 PM57 °FPartly sunny.7 mph67%29.71 "HgN/A
4:50 PM57 °FScattered clouds.8 mph67%29.74 "HgN/A
4:20 PM59 °FScattered clouds.7 mph63%29.74 "HgN/A
Weather by CustomWeather, © 2014

See weather overviewHow to use our weather pages